Regional Weather Roundup
Issued by NWS

Home | Current Version | Previous Version | Text Only | Print | Product List | Glossary Off
Versions: 1 2 3 4 5 6 7 8 9 10 11 12 13 14 15 16 17 18 19 20 21 22 23 24 25 26 27 28 29 30 31 32 33 34 35 36 37 38 39 40 41 42 43 44 45 46 47 48 49 50

000
ASUS45 KBOU 231507
RWRCO

WEATHER ROUNDUP FOR COLORADO
NATIONAL WEATHER SERVICE DENVER/BOULDER CO
800 AM MST SUN NOV 23 2014

NOTE: "FAIR" INDICATES FEW OR NO CLOUDS BELOW 12000 FEET WITH NO
SIGNIFICANT WEATHER AND/OR OBSTRUCTIONS TO VISIBILITY.

COZ001>005-013-030-031-231600-
...NORTHWEST COLORADO...

CITY           SKY/WX    TMP DP  RH WIND       PRES   REMARKS
CRAIG          LGT SNOW  26  22  84 SW7       29.91R VSB 3/4 WCI  18
HAYDEN         CLOUDY    25  21  86 W12       29.89R WCI  14
MEEKER         LGT SNOW  25  20  81 CALM      29.91R
MOUNT WERNER   NOT AVBL
STEAMBOAT SPGS CLOUDY    24  20  85 S3        29.86S
WALDEN         CLOUDY    12   7  79 SE8       29.81R WCI   1
$$

COZ006>008-011-231600-
...WEST CENTRAL VALLEYS...

CITY           SKY/WX    TMP DP  RH WIND       PRES   REMARKS
GRAND JUNCTION FLURRIES  34  27  75 NW17      29.92R WCI  23
MONTROSE       CLOUDY    33  27  78 CALM      29.91R
EAGLE          MOCLDY    28  27  93 CALM      29.89R
RIFLE          MOCLDY    27  23  85 E6        29.91R WCI  20
DELTA          CLOUDY    37  31  79 CALM      29.89R
NUCLA          CLOUDY    34  25  69 NW6       29.96R WCI  29
$$

COZ017>023-064>068-231600-
...SOUTHWEST COLORADO...

CITY           SKY/WX    TMP DP  RH WIND       PRES   REMARKS
DURANGO        PTCLDY    32  22  66 W17       29.81R WCI  21
CORTEZ         MOCLDY    34  24  67 NW20G26   29.91R WCI  23
PAGOSA SPRINGS CLOUDY    32  30  92 SW3       29.78R
TELLURIDE      CLOUDY    22  20  93 W13G24    29.88R WCI  10
WOLF CREEK PAS PTSUNNY   12  12 100 MISG      29.77R
$$

COZ009-010-012-014-032>034-037-058>063-231600-
...CENTRAL COLORADO...

CITY           SKY/WX    TMP DP  RH WIND       PRES   REMARKS
ASPEN          MOCLDY    23  20  88 N5        29.83R WCI  17
BUENA VISTA    CLOUDY    28  15  58 NW24G30   29.75R WCI  13
COPPER MTN     CLOUDY    14   9  79 W18       29.76R WCI  -3
BERTHOUD PASS  CLOUDY     5   1  85 NW28G35   29.72R WCI -18
COTTONWOOD PAS CLOUDY    25  18  74 N5        29.74R WCI  19
GUNNISON       MOCLDY    27  19  74 S7        29.83R WCI  19
KREMMLING      CLOUDY    23  16  74 N5        29.86R WCI  17
LEADVILLE      CLOUDY    15   7  70 N17G25    29.76R WCI  -1
MONARCH PASS   CLOUDY    12  10  92 W22G161   29.82S WCI  -7
SALIDA         CLOUDY    29  26  86 S5        29.84S WCI  24
SUNLIGHT       CLOUDY   N/A N/A N/A W7        29.85R
WILKERSON PASS CLOUDY    18   9  68 W5        29.74R WCI  11
$$

COZ069>075-231600-
...SAN LUIS VALLEY/SANGRE DE CRISTO MOUNTAINS...

CITY           SKY/WX    TMP DP  RH WIND       PRES   REMARKS
ALAMOSA        CLOUDY    27  22  81 CALM      29.73R
LA VETA PASS   FOG       21  19  93 NE7       29.73R VSB 1/4 WCI  13
SAGUACHE       PTSUNNY   28  19  69 NW20G28   29.76R WCI  15
$$

COZ035-036-038>040-231600-
...NORTHERN COLORADO FRONT RANGE...

CITY           SKY/WX    TMP DP  RH WIND       PRES   REMARKS
DENVER INTL AP CLOUDY    34  24  67 CALM      29.77R
DMNS CITY PARK   N/A     35  23  61 W2        29.78S
AURORA         PTSUNNY   32  23  70 CALM      29.79R
FRONT RANGE AP NOT AVBL
ERIE MUNI ARPT CLOUDY    34  24  65 SW5       29.79R WCI  30
BOULDER MUN AP CLOUDY    34  23  64 SE3       29.78S
CENTENNIAL     CLOUDY    32  24  72 N7        29.78R WCI  26
BROOMFIELD     NOT AVBL
FORT COLLINS   MOCLDY    34  16  47 N10       29.78S WCI  26
LONGMONT       MOCLDY    36  23  58 CALM      29.80S
$$

COZ041-046-047-076>085-087-088-231600-
...PIKES PEAK/PALMER DIVIDE AND SOUTHERN FOOTHILLS...

CITY           SKY/WX    TMP DP  RH WIND       PRES   REMARKS
COLO. SPRINGS  CLOUDY    32  23  69 NW15      29.76R WCI  22
A. F. ACADEMY  CLOUDY    29  23  78 NW14      29.76R WCI  18
ELLICOTT       NOT AVBL
FALCON         NOT AVBL
FORT CARSON    CLOUDY    33  23  66 N17G31    29.74R WCI  22
LIMON          PTSUNNY   30  20  66 N16       29.74R WCI  19
MONUMENT HILL  CLOUDY    27  23  86 N8        29.75R WCI  18
TRINIDAD       CLOUDY    33  28  81 NW3       29.76R
$$

COZ042>045-048>051-090-091-231600-
...NORTHEAST COLORADO...

CITY           SKY/WX    TMP DP  RH WIND       PRES   REMARKS
GREELEY ARPT   MOCLDY    32  19  59 N10       29.79R WCI  24
AKRON          CLOUDY    32  18  56 N16       29.74R WCI  21
BURLINGTON     CLOUDY    40  12  32 N25G37    29.70R
WRAY           CLOUDY    40  17  39 NW16G24   29.72R
STERLING       CLOUDY    37  21  52 N14       29.73R
HOLYOKE        CLOUDY    39  19  45 N21G26    29.71R
FORT MORGAN    CLOUDY    34  18  53 N15       29.77R WCI  24
$$

COZ086-089-092>099-231600-
...SOUTHEAST COLORADO...

CITY           SKY/WX    TMP DP  RH WIND       PRES   REMARKS
PUEBLO         CLOUDY    40  23  50 N22G30    29.74R
LA JUNTA       CLOUDY    41  25  53 N16       29.73R
LAMAR          CLOUDY    43  18  36 N31G43    29.62R HAZE
SPRINGFIELD      N/A     41  25  53 N25G36    29.65R
$$



USA.gov is the U.S. government's official web portal to all federal, state and local government web resources and services.